Torna al catalogo

CZ-6A DEB

AttivoSSO
NORAD 54331·DEBRIS·🇨🇳 China

Lanciato Nov 11, 2022 da Taiyuan Satellite Launch Center

Loading…

Prossimi Passaggi (prossime 24 ore)

TLE

AggiornatoSource: Space-Track

Epoca: Sep 14, 2026, 09:07 UTC

1 54331U 22151CA  26257.38023498  .00000448  00000-0  33649-3 0  9990
2 54331  98.9163 224.6456 0120190 191.0705 168.7809 13.96149629194877

Traccia CZ-6A DEB in tempo reale con AllMySat

Download on the App Store